Simultaneous Nadir Overpasses (SNOs) Predictions

Prediction of SNOs between NPP and TERRA Satellite Orbit:

Table of predicted SNOs for the next 14.0 days since TLE Epoch: 9/24/2022
Index Date (NPP) Time (NPP) Lat,Lon (NPP) SZA (NPP ) Date (TERRA) Time (TERRA) Lat,Lon (TERRA) SZA (TERRA ) Distance(km) Time Diff (sec)
1 09/26/2022 15:57:59 -70.00, 117.06 108.70 09/26/2022 15:58:52 -70.02, 117.06 108.68 2.18 53
2 09/26/2022 16:48:43 69.88, -75.46 71.21 09/26/2022 16:48:19 69.91, -75.44 71.23 2.85 24
3 09/26/2022 17:39:10 -69.00, 93.13 109.68 09/26/2022 17:38:02 -69.08, 91.08 109.59 82.01 68
4 09/29/2022 07:24:26 70.79, 64.26 73.14 09/29/2022 07:25:33 70.72, 66.33 73.05 76.22 67
5 09/29/2022 08:14:54 -69.96,-127.11 107.69 09/29/2022 08:15:15 -69.95,-127.15 107.71 2.34 21
6 09/29/2022 09:05:38 69.85, 40.37 72.21 09/29/2022 09:04:42 69.83, 40.33 72.19 2.12 56
7 10/01/2022 23:41:07 70.02,-178.75 73.40 10/01/2022 23:42:07 70.02,-178.79 73.40 1.64 60
8 10/02/2022 00:31:49 -69.93, -11.29 106.69 10/02/2022 00:31:37 -69.91, -11.32 106.71 1.89 12
9 10/02/2022 01:22:22 69.23, 157.03 72.63 10/02/2022 01:21:13 69.30, 155.51 72.70 60.60 69
10 10/04/2022 15:58:02 70.00, -62.94 74.41 10/04/2022 15:58:29 69.97, -62.98 74.38 3.09 27
11 10/04/2022 16:48:44 -69.90, 104.53 105.69 10/04/2022 16:47:58 -69.92, 104.58 105.67 3.07 46
12 10/07/2022 07:24:13 -70.08,-114.60 104.50 10/07/2022 07:25:23 -70.08,-114.58 104.50 0.72 70
13 10/07/2022 08:14:56 69.97, 52.87 75.41 10/07/2022 08:14:49 69.96, 52.90 75.40 1.93 7
14 10/07/2022 09:05:34 -69.66,-139.35 104.90 10/07/2022 09:04:21 -69.74,-139.77 104.81 18.62 73



Historial Predications of SNOs between NPP and TERRA
